Volver al catálogo

STARLINK-36453

ActivoComunicacionesVLEO
NORAD 67341·PAYLOAD·🇺🇸 United States

Lanzado Jan 9, 2026 desde Cape Canaveral Space Force Station

Loading…

Próximos Pases (próximas 24 horas)

TLE

ActualizadoSource: CelesTrak SupGP

Época: Sep 14, 2026, 23:02 UTC

1 67341C 26003H   26257.96020833 -.00003235  00000+0 -11720-3 0  2570
2 67341  42.9994 238.1123 0001096 259.8450   4.5994 15.27566643    16

Sigue STARLINK-36453 en tiempo real con AllMySat

Download on the App Store